TimeEST,TemperatureF,Dew PointF,Humidity,Sea Level PressureIn,VisibilityMPH,Wind Direction,Wind SpeedMPH,Gust SpeedMPH,PrecipitationIn,Events,Conditions,WindDirDegrees,DateUTC
12:38 AM,28.4,24.8,86,30.00,10.0,Calm,Calm,-,0.00,,Overcast,0,2013-01-30 05:38:00
12:52 AM,28.0,25.0,88,30.04,10.0,Calm,Calm,-,0.00,,Overcast,0,2013-01-30 05:52:00
1:52 AM,28.0,26.1,92,30.01,10.0,Calm,Calm,-,0.00,,Overcast,0,2013-01-30 06:52:00
2:19 AM,28.4,26.6,93,29.96,4.0,South,3.5,-,0.02,Rain,Light Freezing Rain,170,2013-01-30 07:19:00
2:35 AM,30.2,26.6,86,29.94,7.0,Calm,Calm,-,0.05,Rain,Light Freezing Rain,0,2013-01-30 07:35:00
2:52 AM,30.0,27.0,88,29.98,8.0,Calm,Calm,-,0.05,Rain,Light Freezing Rain,0,2013-01-30 07:52:00
3:45 AM,30.2,28.4,93,29.89,10.0,Calm,Calm,-,0.04,,Overcast,0,2013-01-30 08:45:00
3:52 AM,30.9,28.9,92,29.94,8.0,Calm,Calm,-,0.04,,Overcast,0,2013-01-30 08:52:00
4:08 AM,30.2,28.4,93,29.88,8.0,Calm,Calm,-,0.02,,Overcast,0,2013-01-30 09:08:00
4:29 AM,32.0,30.2,93,29.88,9.0,Calm,Calm,-,0.03,Rain,Light Freezing Rain,0,2013-01-30 09:29:00
4:38 AM,32.0,30.2,93,29.88,10.0,Calm,Calm,-,0.03,Rain,Light Freezing Rain,0,2013-01-30 09:38:00
4:52 AM,32.0,30.0,92,29.92,6.0,Calm,Calm,-,0.04,Rain,Light Freezing Rain,0,2013-01-30 09:52:00
5:22 AM,33.8,30.2,87,29.87,8.0,Calm,Calm,-,0.00,,Overcast,0,2013-01-30 10:22:00
5:52 AM,33.1,30.9,92,29.89,8.0,Calm,Calm,-,0.00,,Overcast,0,2013-01-30 10:52:00
6:52 AM,33.1,30.9,92,29.86,6.0,Calm,Calm,-,N/A,,Mostly Cloudy,0,2013-01-30 11:52:00
7:37 AM,32.0,30.2,93,29.79,2.5,Calm,Calm,-,N/A,,Scattered Clouds,0,2013-01-30 12:37:00
7:52 AM,32.0,30.0,92,29.83,3.0,Calm,Calm,-,N/A,,Partly Cloudy,0,2013-01-30 12:52:00
8:11 AM,33.8,30.2,87,29.78,3.0,Calm,Calm,-,N/A,,Partly Cloudy,0,2013-01-30 13:11:00
8:52 AM,33.1,30.9,92,29.80,3.0,Calm,Calm,-,N/A,,Clear,0,2013-01-30 13:52:00
9:52 AM,34.0,30.9,89,29.74,9.0,Calm,Calm,-,N/A,,Mostly Cloudy,0,2013-01-30 14:52:00
10:09 AM,33.8,30.2,87,29.68,9.0,North,3.5,-,N/A,,Overcast,10,2013-01-30 15:09:00
10:35 AM,35.6,33.8,93,29.68,10.0,East,3.5,-,N/A,,Scattered Clouds,90,2013-01-30 15:35:00
10:52 AM,37.0,34.0,89,29.70,7.0,Calm,Calm,-,N/A,,Clear,0,2013-01-30 15:52:00
11:52 AM,39.0,37.0,93,29.64,10.0,Calm,Calm,-,N/A,,Clear,0,2013-01-30 16:52:00
12:52 PM,42.1,39.9,92,29.59,10.0,Calm,Calm,-,N/A,,Overcast,0,2013-01-30 17:52:00
1:52 PM,45.0,43.0,93,29.54,10.0,Calm,Calm,-,N/A,,Scattered Clouds,0,2013-01-30 18:52:00
2:52 PM,46.9,44.1,90,29.49,10.0,Variable,3.5,-,N/A,,Clear,0,2013-01-30 19:52:00
3:52 PM,57.0,46.9,69,29.50,10.0,WSW,6.9,-,0.00,,Overcast,250,2013-01-30 20:52:00
4:52 PM,54.0,48.0,80,29.49,10.0,SW,4.6,-,0.03,,Overcast,230,2013-01-30 21:52:00
5:52 PM,55.9,48.9,77,29.45,10.0,WSW,6.9,-,N/A,,Overcast,240,2013-01-30 22:52:00
6:52 PM,51.1,48.0,89,29.46,10.0,Calm,Calm,-,N/A,,Overcast,0,2013-01-30 23:52:00
7:48 PM,46.4,44.6,93,29.41,1.8,SE,4.6,-,0.00,Rain,Light Rain,130,2013-01-31 00:48:00
7:52 PM,45.0,43.0,93,29.44,1.5,Calm,Calm,-,0.00,Rain,Light Rain,0,2013-01-31 00:52:00
8:10 PM,46.4,44.6,93,29.41,3.0,West,4.6,-,0.00,Rain,Light Rain,260,2013-01-31 01:10:00
8:30 PM,44.6,42.8,93,29.43,1.5,WNW,6.9,-,0.01,Rain,Light Rain,290,2013-01-31 01:30:00
8:48 PM,48.2,46.4,93,29.42,3.0,Calm,Calm,-,0.01,Rain,Light Rain,0,2013-01-31 01:48:00
8:52 PM,48.0,46.9,96,29.44,9.0,West,3.5,-,0.01,Rain,Light Rain,270,2013-01-31 01:52:00
9:01 PM,46.4,44.6,93,29.42,3.0,Calm,Calm,-,0.00,Rain,Light Rain,0,2013-01-31 02:01:00
9:03 PM,44.6,44.6,100,29.42,1.5,Calm,Calm,-,0.00,Rain,Light Rain,0,2013-01-31 02:03:00
9:08 PM,44.6,42.8,93,29.42,0.8,Calm,Calm,-,0.00,Rain,Light Rain,0,2013-01-31 02:08:00
9:30 PM,44.6,42.8,93,29.43,0.5,Calm,Calm,-,0.01,Fog-Rain,Light Rain,0,2013-01-31 02:30:00
9:40 PM,44.6,44.6,100,29.43,0.8,Calm,Calm,-,0.01,Rain,Light Rain,0,2013-01-31 02:40:00
9:52 PM,42.1,41.0,96,29.42,0.5,ESE,5.8,-,0.03,Fog-Rain,Light Rain,120,2013-01-31 02:52:00
10:02 PM,42.8,41.0,93,29.39,0.5,Calm,Calm,-,0.00,Fog-Rain,Light Rain,0,2013-01-31 03:02:00
10:52 PM,44.1,42.1,93,29.38,0.5,West,3.5,-,0.00,Fog-Rain,Light Rain,270,2013-01-31 03:52:00
11:52 PM,37.9,37.0,97,29.37,0.5,Calm,Calm,-,0.01,Fog-Rain,Light Rain,0,2013-01-31 04:52:00